STARLINK-35776, 66282

Orbit data source: Space-Track

STARLINK-35776, 66282 is a payload satellite owned by SpaceX/Seattle (US) in LEO that was launched on Fri, 31 Oct 2025 UTC via an FALCON 9 launch vehicle from the Air Force Western Test Range (AFWTR). Payload-class satellites include a variety of spacecraft equipped with specific instruments for various scientific and technological missions. These include communications satellites like Starlink; space stations such as the ISS; scientific satellites like the Hubble; Earth observation satellites from companies like Planet Labs, Umbra, and HawkEye 360; GPS; miniature CubeSats for education and research; and military/defense satellites.

Loading next visibility...
Identifier
66282, 2025-247T
Orbit
LEO
Country
Flag of USUS
Related business
Manufacturer
SpaceX/Seattle
Mission
Operational Commercial Communications
Bus & Motor
STARLINK V2MO, Unknown motor
Mass
575 kg wet, ~530 kg dry
Launch date (UTC)
2025-10-31 (8 months ago)
Launch vehicle
FALCON 9
Launch site
Air Force Western Test Range (AFWTR)
Object type
Payload
Rocket body
Debris
Shape & HBR
Box + 2 Pan, 17.7 m
Radar Cross Section
36.964 m², Large (>1 m²)

Expand to show TLE details & history
Last TLE update: 22 hours ago

TLE from 22 hours ago
0 STARLINK-35776
1 66282U 25247T   26170.93997875  .00020133  00000-0  60504-3 0  9994
2 66282  53.1613  76.1494 0001175  82.8637 277.2500 15.34419249 36693
Epoch: 2026-06-19T22:33Z
TLE epoch observation values (Epoch: 2026-06-19T22:33:34.164Z)
Latitude
0.00002°
Longitude
-170.40469°
Altitude
463.446 km
Speed
7.636 km/s
True Right ascension
05h 04m 35s
True Declination
0° 00' 00"
Sunlit
Object was in daylight at epoch
Visualization orbit readout
Latitude
Unknown
Longitude
Unknown
Altitude
Unknown
Speed
Unknown
Apparent Right ascension
Unknown
Apparent Declination
Unknown
Sunlit
N/A
Visualization observer readout
Local Sidereal Time
07:15:35
Azimuth
Unknown
Elevation
Unknown
Doppler factor
Unknown
Orbital elements
Apogee altitude
463.707 km
Perigee altitude
462.099 km
Semi-major axis
6,841.04 km
Eccentricity
0.00012
Inclination
53.1613°
RAAN
76.1494°
Arg. of periapsis
82.8637°
True anomaly
277.23664°
Mean anomaly
277.25°
Eccentric anomaly
277.24332°
Mean motion
3.83584 °/min
Orbital period
93.85 mins
BSTAR
0.00060504
Loading maneuver chart data...
Computing Atmospheric mass density...
Loading historical data...
Loading historical data...
Loading historical data...
Loading historical data...
Loading historical data...
Loading historical data...
Loading historical data...

Documentation

Showing up to 5 results
|